Weather History for Nashville, TN

Change the Weather History Date:

Saturday, April 28, 2012

  Actual Average Record
Temperature  
Mean Temperature 69 °F 63 °F  
Max Temperature 83 °F 74 °F 90 °F (1989)
Min Temperature 55 °F 51 °F 36 °F (1992)
Degree Days  
Heating Degree Days 0 4  
Month to date heating degree days 153 210  
Since 1 July heating degree days 2819 3621  
Cooling Degree Days 4 2  
Month to date cooling degree days 53 36  
Year to date cooling degree days 114 44  
Growing Degree Days 18 (Base 50)    
Moisture  
Dew Point 56 °F    
Average Humidity 65    
Maximum Humidity 93    
Minimum Humidity 37    
Precipitation  
Precipitation 0.00 in 0.16 in 3.19 in (2014)
Month to date precipitation 2.86 3.69  
Year to date precipitation 13.91 15.49  
Snow  
Snow 0.00 in 0.00 in 0.00 in (2002)
Month to date snowfall 0.0 0.1  
Since 1 July snowfall 0.4 6.4  
Snow Depth 0.00 in    
Sea Level Pressure  
Sea Level Pressure 29.99 in    
Wind  
Wind Speed 7 mph (SSW)    
Max Wind Speed 18 mph    
Max Gust Speed 24 mph    
Visibility 10 miles    
Events      
T = Trace of Precipitation, MM = Missing Value Source: NWS Daily Summary

Daily Weather History Graph

Daily Weather History Graph

Search for Another Location

Airport:

Trip Planner

Search our weather history database for the weather conditions in past years. The results will help you decide how hot, cold, wet, or windy it might be!

Date:

Astronomy

Apr. 28, 2012 Rise Set
Actual Time 5:56 AM CDT 7:32 PM CDT
Civil Twilight 5:29 AM CDT 7:59 PM CDT
Nautical Twilight 4:56 AM CDT 8:32 PM CDT
Astronomical Twilight 4:22 AM CDT 9:07 PM CDT
Moon 11:36 AM CDT (4/28) 12:55 AM CDT (4/28)
Length of Visible Light 14h 29m
Length of Day
13h 35m
Waxing Crescent, 43% of the Moon is Illuminated
Apr 28
Waxing Crescent
Apr 29
First Quarter
May 5
Full
May 12
Last Quarter
May 20
New

Hourly Weather History & Observations

Time (CDT) Temp. Heat Index Dew Point Humidity Pressure Visibility Wind Dir Wind Speed Gust Speed Precip Events Conditions
12:53 AM 59.0 °F - 50.0 °F 72% 30.00 in 10.0 mi NE 4.6 mph - N/A   Scattered Clouds
1:53 AM 57.2 °F - 50.0 °F 77% 29.98 in 10.0 mi Calm Calm - N/A   Partly Cloudy
2:53 AM 57.0 °F - 50.0 °F 77% 29.97 in 10.0 mi SSE 3.5 mph - N/A   Mostly Cloudy
3:53 AM 55.9 °F - 51.1 °F 84% 29.99 in 10.0 mi Calm Calm - N/A   Mostly Cloudy
4:53 AM 55.9 °F - 52.0 °F 87% 29.98 in 10.0 mi South 3.5 mph - N/A   Mostly Cloudy
5:53 AM 57.0 °F - 55.0 °F 93% 29.98 in 9.0 mi South 5.8 mph - N/A   Mostly Cloudy
6:53 AM 61.0 °F - 57.9 °F 90% 30.01 in 7.0 mi SSW 5.8 mph - N/A   Mostly Cloudy
7:53 AM 66.9 °F - 61.0 °F 81% 30.01 in 10.0 mi South 8.1 mph - N/A   Scattered Clouds
8:53 AM 71.1 °F - 61.0 °F 70% 30.01 in 10.0 mi SW 9.2 mph - N/A   Partly Cloudy
9:53 AM 73.9 °F - 62.1 °F 66% 30.01 in 10.0 mi SSW 9.2 mph - N/A   Mostly Cloudy
10:53 AM 77.0 °F - 62.1 °F 60% 30.02 in 10.0 mi SW 8.1 mph 16.1 mph N/A   Mostly Cloudy
11:53 AM 78.1 °F - 61.0 °F 56% 30.01 in 10.0 mi SSW 11.5 mph 17.3 mph N/A   Mostly Cloudy
12:53 PM 79.0 °F - 59.0 °F 50% 29.99 in 10.0 mi South 13.8 mph 24.2 mph N/A   Scattered Clouds
1:53 PM 81.0 °F 81.0 °F 57.0 °F 44% 29.97 in 10.0 mi SSW 12.7 mph 23.0 mph N/A   Scattered Clouds
2:53 PM 82.0 °F 81.7 °F 57.0 °F 42% 29.95 in 10.0 mi SSW 12.7 mph 20.7 mph N/A   Partly Cloudy
3:53 PM 82.9 °F 82.1 °F 55.9 °F 39% 29.94 in 10.0 mi South 13.8 mph 19.6 mph N/A   Partly Cloudy
4:53 PM 82.9 °F 81.8 °F 53.1 °F 36% 29.94 in 10.0 mi SW 10.4 mph 19.6 mph N/A   Partly Cloudy
5:53 PM 82.0 °F 81.2 °F 53.1 °F 37% 29.93 in 10.0 mi SW 5.8 mph - N/A   Partly Cloudy
6:53 PM 79.0 °F - 54.0 °F 42% 29.94 in 10.0 mi SSW 6.9 mph - N/A   Scattered Clouds
7:53 PM 75.9 °F - 54.0 °F 46% 29.96 in 10.0 mi Calm Calm - N/A   Scattered Clouds
8:53 PM 73.4 °F - 55.4 °F 53% 30.02 in 10.0 mi Calm Calm - N/A   Scattered Clouds
9:53 PM 70.0 °F - 57.0 °F 63% 30.04 in 10.0 mi South 3.5 mph - N/A   Mostly Cloudy
10:53 PM 66.9 °F - 57.9 °F 73% 30.06 in 10.0 mi South 5.8 mph - N/A   Scattered Clouds
11:53 PM 64.9 °F - 57.9 °F 78% 30.07 in 10.0 mi South 4.6 mph - N/A   Scattered Clouds